Location: *
(46.1006°N, 1.8394°E)
Time: 02:35:11
(UTC+00:00)

Cosmos 2341 Rocket - Pass Details

Date: 20 September 2019
Orbit: 967 x 1005 km, 82.9° (Epoch: 18 October)

Event Time Altitude Azimuth Distance (km) Brightness Sun altitude
Rises 19:19:08 0° 351° (N) 3,691 7.4 -15.2°
Reaches altitude 10° 19:21:40 10° 352° (N) 2,735 6.7 -15.6°
Maximum altitude 19:27:57 85° 82° (E) 981 3.9 -16.6°
Drops below altitude 10° 19:34:09 10° 171° (S) 2,702 6.0 -17.6°
Enters shadow 19:36:22 - 172° (S) 3,543 6.7 -18.0°
